#timestamp,LO_Frequency,Hit,StdDev 
1528203615.5,286047002.4,N
1528203635.4,286047000.3,N
1528203655.2,286047000.2,N
1528203675.0,286047002.0,N
1528203675.9,286047002.0,N
1528203695.8,286047000.1,N
1528203715.6,286047000.5,N
1528203735.5,286047001.0,N
1528203755.3,286047000.8,N
1528203775.1,286046998.3,N
1528203795.9,286046998.4,N
1528203815.7,286046998.9,N
1528203835.5,286046998.8,N
1528203855.4,286046999.1,N
1528203875.2,286046998.8,N
1528203895.1,286046998.9,N
1528203896.0,286046998.9,N
1528203915.8,286047000.0,N
1528203935.6,286047002.6,N
1528203955.5,286047002.7,N
1528203975.3,286047002.3,N
1528203995.1,286047002.8,N
1528204015.9,286047002.3,N
1528204035.7,286047002.2,N
1528204055.6,286047001.6,N
1528204075.4,286047002.4,N
1528204095.2,286047004.0,N
1528204115.1,286047002.2,N
1528204116.0,286047002.2,N
1528204135.8,286047004.3,N
1528204155.7,286047001.4,N
1528204175.5,286047003.0,N
1528204195.3,286047003.6,N
1528204215.2,286047004.3,N
1528204235.0,286047003.5,N
1528204235.9,286047003.5,N
1528204255.7,286047003.9,N
1528204275.6,286047001.8,N
1528204295.4,286047004.0,N
1528204315.3,286047001.5,N
1528204335.1,286047001.5,N
1528204336.0,286047001.5,N
1528204355.8,286047002.0,N
1528204375.7,286047001.6,N
1528204395.5,286047001.6,N
1528204415.4,286047001.6,N
1528204435.2,286047003.6,N
1528204455.0,286047003.8,Y
1528204455.9,286047003.8,P
1528204475.8,286047001.0,N
1528204495.6,286047001.0,N
1528204515.5,286046998.8,N
1528204535.3,286046998.9,N
1528204555.1,286046998.1,N
1528204575.9,286047001.0,N
1528204595.7,286046999.0,N
1528204615.5,286047000.7,N
1528204635.4,286046999.1,N
1528204655.2,286046998.4,N
1528204675.1,286047000.9,N
1528204676.0,286047000.9,N
1528204695.8,286047000.6,N
1528204715.6,286047000.0,N
1528204735.5,286047000.9,N
1528204755.3,286046998.1,N
1528204775.1,286046998.7,N
1528204795.9,286047000.6,N
1528204815.7,286047001.1,N
1528204835.6,286047001.2,N
1528204855.4,286047001.0,N
1528204875.2,286047000.6,N
1528204895.1,286047000.7,N
1528204896.0,286047000.7,N
1528204915.8,286046998.2,N
1528204935.6,286046999.3,N
1528204955.5,286046999.0,N
1528204975.3,286046998.3,N
1528204995.2,286046998.8,N
1528205015.9,286046997.0,N
1528205035.7,286046996.7,N
1528205055.6,286046998.0,N
1528205075.4,286046996.6,N
1528205095.3,286046997.2,N
1528205115.1,286046996.6,N
1528205116.0,286046996.6,N
1528205135.8,286046999.6,N
1528205155.7,286046999.6,N
1528205175.5,286046998.9,N
1528205195.3,286046998.9,N
1528205215.2,286047000.6,N
1528205235.0,286047000.1,N
1528205235.9,286047000.1,N
1528205255.8,286047000.1,N
1528205275.6,286047000.9,N
1528205295.4,286046999.9,N
1528205315.3,286047000.6,N
1528205335.1,286046999.9,N
1528205355.9,286047000.9,N
1528205375.7,286046999.4,N
1528205395.5,286047001.2,N
1528205415.4,286046998.1,N
1528205435.2,286046998.4,N
1528205455.1,286046998.4,N
1528205456.0,286046998.4,N
1528205475.8,286046998.7,N
1528205495.7,286046998.8,N
1528205515.5,286046998.5,N
1528205535.3,286047001.2,N
1528205555.2,286047000.3,N
1528205575.0,286047000.4,N
1528205575.9,286047000.4,N
1528205595.8,286047000.6,N
1528205615.6,286047001.2,N
1528205635.4,286046998.1,N
1528205655.3,286046998.6,N
1528205675.1,286046999.2,N
1528205695.8,286046998.8,N
1528205715.7,286046998.8,N
1528205735.5,286046998.5,N
1528205755.4,286047001.2,N
1528205775.2,286046998.1,N
1528205795.0,286047000.5,N
1528205795.9,286047000.5,N
1528205815.8,286047002.8,N
1528205835.6,286047000.3,N
1528205855.5,286047001.1,N
1528205875.3,286047000.3,N
1528205895.1,286047000.0,N
1528205915.9,286047002.1,N
1528205935.7,286047000.5,N
1528205955.6,286047000.0,N
1528205975.4,286046999.9,N
1528205995.2,286046998.1,N
1528206015.1,286046998.5,N
1528206016.0,286046998.5,N
1528206035.8,286046998.9,N
1528206055.6,286046996.5,N
1528206075.5,286046999.5,N
1528206095.3,286046999.6,N
1528206115.2,286046997.2,N
1528206135.9,286046997.0,N
1528206155.7,286046995.4,Y
1528206175.6,286046996.8,P
1528206195.4,286046997.3,N
1528206215.2,286046997.5,N
1528206235.1,286046998.0,N
1528206236.0,286046998.0,N
1528206255.8,286046997.7,N
1528206275.7,286046995.4,Y
1528206295.5,286046998.8,P
1528206315.4,286046999.3,N
1528206335.2,286046997.0,P
1528206355.0,286046999.5,N
1528206355.9,286046999.5,N
1528206375.8,286046996.8,Y
1528206395.6,286046999.5,P
1528206415.4,286046996.7,P
1528206435.3,286046997.2,N
1528206455.1,286046997.6,N
1528206475.9,286046994.9,Y
1528206495.7,286046998.8,P
1528206515.5,286046999.1,N
1528206535.4,286046998.8,N
1528206555.2,286046996.8,Y
1528206575.0,286046999.1,P
1528206576.0,286046999.1,P
1528206595.8,286047001.1,P
1528206615.6,286047001.2,N
1528206635.5,286046999.4,N
1528206655.3,286047000.7,N
1528206675.1,286046998.4,N
1528206695.9,286046999.3,N
1528206715.7,286046998.5,N
1528206735.5,286046998.4,N
1528206755.4,286046998.8,N
1528206775.2,286046998.5,N
1528206795.1,286046999.0,N
1528206796.0,286046999.0,N
1528206815.8,286046996.7,Y
1528206835.6,286046998.9,P
1528206855.5,286046999.1,P
1528206875.3,286046998.9,P
1528206895.2,286046998.3,Y
1528206915.9,286047001.1,P
1528206935.7,286046998.9,N
1528206955.6,286046999.1,N
1528206975.4,286046996.6,Y
1528206995.2,286046999.5,P
1528207015.1,286046999.4,P
1528207016.0,286046999.4,P
1528207035.8,286046999.3,Y
1528207055.7,286047000.6,P
1528207075.5,286047000.6,N
1528207095.3,286047000.1,N
1528207115.2,286047000.8,N
1528207135.0,286047001.1,N
1528207135.9,286047001.1,N
1528207155.8,286047000.6,N
1528207175.6,286047000.5,N
1528207195.4,286046998.1,Y
